sat.trackr.live / text

‹ back to catalog

STARLINK-6053

NORAD 56466 · 2023-064U

PAYLOAD ACTIVE UNKNOWN

§ Identity

Operator
Country
US
Launch date
2023-05-10
Launch site
AFWTR
Launch vehicle
Mass (kg)
RCS (m²)

Purposes: comms

External: N2YO · Heavens-Above · Gunter

§ Orbital elements

Epoch: 2026-09-20T14:10:47.063136Z

Period
96.11 min
Inclination
70.0015°
Eccentricity
0.0003153
Mean motion
14.98330654 rev/d
Perigee alt
569.9 km
Apogee alt
574.2 km
Semi-major
6,950.2 km
B*
1.3512e-5
RAAN
12.9077°
Arg perigee
270.0835°
Mean anomaly
89.9963°
Rev number
18,443

§ Raw data

STARLINK-60531 56466U 23064U   26263.59082249  .00000068  00000+0  13512-4 0  99992 56466  70.0015  12.9077 0003153 270.0835  89.9963 14.98330654184432

JSON: /api/v1/satellites/56466 · /tle

For live sub-satellite position, see the globe view (requires WebGL).

§ Visibility from observer

Set your observer location to see the next 7 days of passes ≥ 10°. The values pass through the URL so the page stays shareable.

No JS? Fill the form by hand. The geolocation button needs JavaScript.